DELTA 1 DEB

Satellite information

Favourite Embed

Satellite Type and Status

DEBRISIN ORBIT

Key statistics

Satellite DELTA 1 DEB at a glance.

Uptime

17451

Days in orbit

Revolutions

≈ 13.6

Per day

Orbit

SSO

Sun Synchronous Orbit

Inclination

98.8

Latest

Satellite identification and parameters

Extended collection of information and parameters for DELTA 1 DEB.

Object identification

Identified? True

Debris? True

Object name: DELTA 1 DEB

International designator: 1978-026GA

Object number (NORAD): 14460

Object ID (CCSDS): 14460

Country: UNITED STATES OF AMERICA (US)

Current information (Y/N): Y

RCS size: SMALL

Orbital parameters

Period: 106.005 minutes

Inclination: 98.8277 deg

SMA: 7419.536 km

Apoapsis: 1230.577 km

Periapsis: 852.224 km

RAAN: 279.3182 deg

Eccentricy: 0.02549708

Argument of periapsis: 180.2721 deg

Mean anomaly: 312.6078 deg

Mean motion: 13.58431254 rev/day

Mean motion (dot): 0.00000243 rev/day2

B* drag term: 0.0003116813 1/REarth

Two-line elements (TLE)

Creation date: Dec. 12, 2025, 10:14 a.m.

Reference frame: TEME

Reference center: EARTH

Epoch: Dec. 12, 2025, 7:38 a.m. UTC

TLE line 0: 0 DELTA 1 DEB

TLE line 1: 1 14460U 78026GA 25346.31818602 .00000243 00000-0 31168-3 0 9998

TLE line 2: 2 14460 98.8277 279.3182 0254971 180.2721 312.6078 13.58431254112703

Live tracking on map

Real-time ground track for satellite DELTA 1 DEB.

In-orbit conjunctions

A list of the most updated potential collisions computed for object DELTA 1 DEB.

Target Orbit TCA Probability of collision Miss distance Type
COSMOS 1627 LEO 2025-05-11 14:14:10 0.002199841 90.0 (m) PAYLOAD
FENGYUN 1C DEB SSO 2024-09-24 16:04:24 0.0002554456 253.0 (m) DEBRIS
SL-8 R/B LEO 2024-08-16 02:30:58 0.0001610469 271.0 (m) ROCKET BODY

Associated space launch

Earth observation satellite

DELTA 1 DEB was lifted into orbit during the mission ‘Delta 2910 | Landsat 3’, on board a Delta 2910 space rocket.

The launch took place on March 5, 1978, 5:54 p.m. from Space Launch Complex 2W.

For more information about the launch, click the button.

Launch to space Delta 2910 | Landsat 3
Delta 2910 | Landsat 3

Agency: N/A

Status: Launch Successful

Launch date: March 5, 1978, 5:54 p.m. UTC

Rocket: Delta 2910

Launch pad: Space Launch Complex 2W

Location: Vandenberg SFB, CA, USA

...

Latest news about this satellite

There are no fresh news available about this satellite. Check back as we update our databases every day.


Newsletter sign-up

Weekly statistics, charts and insights to help you stay on top of the space industry.